Time,TemperatureF,DewpointF,PressureIn,WindDirection,WindDirectionDegrees,WindSpeedMPH,WindSpeedGustMPH,Humidity,HourlyPrecipIn,Conditions,Clouds,dailyrainin,SolarRadiationWatts/m^2,SoftwareType,DateUTC
2013-02-18 00:21:00,18.0,13.0,-100.00,East,100,1.0,3.0,82,0.00,,,0.10,0.000000,,2013-02-18 07:21:00,
2013-02-18 00:31:00,18.0,13.0,-100.00,East,100,1.0,3.0,82,0.00,,,0.10,0.000000,,2013-02-18 07:31:00,
2013-02-18 00:42:00,18.0,13.0,-100.00,East,100,1.0,3.0,82,0.00,,,0.10,0.000000,,2013-02-18 07:42:00,
2013-02-18 00:51:00,18.0,13.0,-100.00,East,100,1.0,3.0,82,0.00,,,0.10,0.000000,,2013-02-18 07:51:00,
2013-02-18 01:21:00,18.0,13.0,-100.00,East,100,2.0,3.0,82,0.00,,,0.10,0.000000,,2013-02-18 08:21:00,
2013-02-18 01:32:00,18.0,13.0,-100.00,East,100,2.0,3.0,82,0.00,,,0.10,0.000000,,2013-02-18 08:32:00,
2013-02-18 01:42:00,18.0,13.0,-100.00,East,100,2.0,3.0,82,0.00,,,0.10,0.000000,,2013-02-18 08:42:00,
2013-02-18 01:52:00,18.0,13.0,-100.00,East,100,2.0,3.0,82,0.00,,,0.10,0.000000,,2013-02-18 08:52:00,
2013-02-18 02:22:00,18.0,13.0,-100.00,East,94,3.0,4.0,81,0.00,,,0.10,0.000000,,2013-02-18 09:22:00,
2013-02-18 02:31:00,18.0,13.0,-100.00,East,94,3.0,4.0,81,0.00,,,0.10,0.000000,,2013-02-18 09:31:00,
2013-02-18 02:41:00,18.0,13.0,-100.00,East,94,3.0,4.0,81,0.00,,,0.10,0.000000,,2013-02-18 09:41:00,
2013-02-18 02:51:00,18.0,13.0,-100.00,East,94,3.0,4.0,81,0.00,,,0.10,0.000000,,2013-02-18 09:51:00,
2013-02-18 03:21:00,17.0,12.0,-100.00,East,95,3.0,4.0,81,0.00,,,0.10,0.000000,,2013-02-18 10:21:00,
2013-02-18 03:31:00,17.0,12.0,-100.00,East,95,3.0,4.0,81,0.00,,,0.10,0.000000,,2013-02-18 10:31:00,
2013-02-18 03:42:00,17.0,12.0,-100.00,East,95,3.0,4.0,81,0.00,,,0.10,0.000000,,2013-02-18 10:42:00,
2013-02-18 03:51:00,17.0,12.0,-100.00,East,95,3.0,4.0,81,0.00,,,0.10,0.000000,,2013-02-18 10:51:00,
2013-02-18 04:21:00,16.0,12.0,-100.00,East,94,3.0,4.0,84,0.00,,,0.10,0.000000,,2013-02-18 11:21:00,
2013-02-18 04:32:00,16.0,12.0,-100.00,East,94,3.0,4.0,84,0.00,,,0.10,0.000000,,2013-02-18 11:32:00,
2013-02-18 04:42:00,16.0,12.0,-100.00,East,94,3.0,4.0,84,0.00,,,0.10,0.000000,,2013-02-18 11:42:00,
2013-02-18 04:52:00,16.0,12.0,-100.00,East,94,3.0,4.0,84,0.00,,,0.10,0.000000,,2013-02-18 11:52:00,
2013-02-18 05:22:00,16.0,12.0,-100.00,ESE,102,3.0,4.0,85,0.00,,,0.10,0.000000,,2013-02-18 12:22:00,
2013-02-18 05:32:00,16.0,12.0,-100.00,ESE,102,3.0,4.0,85,0.00,,,0.10,0.000000,,2013-02-18 12:32:00,
2013-02-18 05:42:00,16.0,12.0,-100.00,ESE,102,3.0,4.0,85,0.00,,,0.10,0.000000,,2013-02-18 12:42:00,
2013-02-18 05:52:00,16.0,12.0,-100.00,ESE,102,3.0,4.0,85,0.00,,,0.10,0.000000,,2013-02-18 12:52:00,
2013-02-18 06:22:00,15.0,12.0,-100.00,East,100,2.0,5.0,86,0.00,,,0.10,0.000000,,2013-02-18 13:22:00,
2013-02-18 06:32:00,15.0,12.0,-100.00,East,100,2.0,5.0,86,0.00,,,0.10,0.000000,,2013-02-18 13:32:00,
2013-02-18 06:42:00,15.0,12.0,-100.00,East,100,2.0,5.0,86,0.00,,,0.10,0.000000,,2013-02-18 13:42:00,
2013-02-18 06:52:00,15.0,12.0,-100.00,East,100,2.0,5.0,86,0.00,,,0.10,0.000000,,2013-02-18 13:52:00,
2013-02-18 07:22:00,15.0,12.0,-100.00,ESE,105,3.0,4.0,86,0.00,,,0.10,0.000000,,2013-02-18 14:22:00,
2013-02-18 07:32:00,15.0,12.0,-100.00,ESE,105,3.0,4.0,86,0.00,,,0.10,0.000000,,2013-02-18 14:32:00,
2013-02-18 07:41:00,15.0,12.0,-100.00,ESE,105,3.0,4.0,86,0.00,,,0.10,0.000000,,2013-02-18 14:41:00,
2013-02-18 07:52:00,15.0,12.0,-100.00,ESE,105,3.0,4.0,86,0.00,,,0.10,0.000000,,2013-02-18 14:52:00,
2013-02-18 08:22:00,14.0,11.0,-100.00,East,95,3.0,4.0,86,0.00,,,0.10,3.000000,,2013-02-18 15:22:00,
2013-02-18 08:32:00,14.0,11.0,-100.00,East,95,3.0,4.0,86,0.00,,,0.10,3.000000,,2013-02-18 15:32:00,
2013-02-18 08:42:00,14.0,11.0,-100.00,East,95,3.0,4.0,86,0.00,,,0.10,3.000000,,2013-02-18 15:42:00,
2013-02-18 08:52:00,14.0,11.0,-100.00,East,95,3.0,4.0,86,0.00,,,0.10,3.000000,,2013-02-18 15:52:00,
2013-02-18 09:22:00,17.0,13.0,-100.00,East,93,3.0,5.0,84,0.00,,,0.10,33.000000,,2013-02-18 16:22:00,
2013-02-18 09:32:00,17.0,13.0,-100.00,East,93,3.0,5.0,84,0.00,,,0.10,33.000000,,2013-02-18 16:32:00,
2013-02-18 09:42:00,17.0,13.0,-100.00,East,93,3.0,5.0,84,0.00,,,0.10,33.000000,,2013-02-18 16:42:00,
2013-02-18 09:52:00,17.0,13.0,-100.00,East,93,3.0,5.0,84,0.00,,,0.10,33.000000,,2013-02-18 16:52:00,
2013-02-18 10:22:00,20.0,14.0,-100.00,East,93,3.0,5.0,77,0.00,,,0.10,101.000000,,2013-02-18 17:22:00,
2013-02-18 10:32:00,20.0,14.0,-100.00,East,93,3.0,5.0,77,0.00,,,0.10,101.000000,,2013-02-18 17:32:00,
2013-02-18 10:42:00,20.0,14.0,-100.00,East,93,3.0,5.0,77,0.00,,,0.10,101.000000,,2013-02-18 17:42:00,
2013-02-18 10:52:00,20.0,14.0,-100.00,East,93,3.0,5.0,77,0.00,,,0.10,101.000000,,2013-02-18 17:52:00,
2013-02-18 11:22:00,25.0,16.0,-100.00,East,94,3.0,5.0,69,0.00,,,0.10,181.000000,,2013-02-18 18:22:00,
2013-02-18 11:32:00,25.0,16.0,-100.00,East,94,3.0,5.0,69,0.00,,,0.10,181.000000,,2013-02-18 18:32:00,
2013-02-18 11:42:00,25.0,16.0,-100.00,East,94,3.0,5.0,69,0.00,,,0.10,181.000000,,2013-02-18 18:42:00,
2013-02-18 11:52:00,25.0,16.0,-100.00,East,94,3.0,5.0,69,0.00,,,0.10,181.000000,,2013-02-18 18:52:00,
2013-02-18 12:22:00,31.0,17.0,-100.00,East,92,2.0,6.0,56,0.00,,,0.10,333.000000,,2013-02-18 19:22:00,
2013-02-18 12:42:00,31.0,17.0,-100.00,East,92,2.0,6.0,56,0.00,,,0.10,333.000000,,2013-02-18 19:42:00,
2013-02-18 12:52:00,31.0,17.0,-100.00,East,92,2.0,6.0,56,0.00,,,0.10,333.000000,,2013-02-18 19:52:00,
2013-02-18 13:22:00,35.0,17.0,-100.00,East,83,1.0,6.0,47,0.00,,,0.02,440.000000,,2013-02-18 20:22:00,
2013-02-18 14:21:00,36.0,17.0,-100.00,East,90,1.0,6.0,45,-99.99,,,0.00,441.000000,,2013-02-18 21:21:00,
2013-02-18 14:32:00,36.0,17.0,-100.00,East,90,1.0,6.0,45,-99.99,,,0.00,441.000000,,2013-02-18 21:32:00,
2013-02-18 14:42:00,36.0,17.0,-100.00,East,90,1.0,6.0,45,-99.99,,,0.00,441.000000,,2013-02-18 21:42:00,
2013-02-18 14:52:00,36.0,17.0,-100.00,East,90,1.0,6.0,45,-99.99,,,0.00,441.000000,,2013-02-18 21:52:00,
2013-02-18 15:22:00,31.0,15.0,-100.00,East,86,3.0,6.0,51,0.00,,,0.00,272.000000,,2013-02-18 22:22:00,
2013-02-18 15:42:00,31.0,15.0,-100.00,East,86,3.0,6.0,51,0.00,,,0.00,272.000000,,2013-02-18 22:42:00,
2013-02-18 15:52:00,31.0,15.0,-100.00,East,86,3.0,6.0,51,0.00,,,0.00,272.000000,,2013-02-18 22:52:00,
2013-02-18 16:22:00,35.0,16.0,-100.00,East,89,1.0,5.0,45,0.00,,,0.00,267.000000,,2013-02-18 23:22:00,
2013-02-18 16:32:00,35.0,16.0,-100.00,East,89,1.0,5.0,45,0.00,,,0.00,267.000000,,2013-02-18 23:32:00,
2013-02-18 16:42:00,35.0,16.0,-100.00,East,89,1.0,5.0,45,0.00,,,0.00,267.000000,,2013-02-18 23:42:00,
2013-02-18 16:52:00,35.0,16.0,-100.00,East,89,1.0,5.0,45,0.00,,,0.00,267.000000,,2013-02-18 23:52:00,
2013-02-18 17:22:00,31.0,15.0,-100.00,ENE,75,1.0,5.0,52,0.00,,,0.00,195.000000,,2013-02-19 00:22:00,
2013-02-18 17:33:00,31.0,15.0,-100.00,ENE,75,1.0,5.0,52,0.00,,,0.00,195.000000,,2013-02-19 00:33:00,
2013-02-18 17:42:00,31.0,15.0,-100.00,ENE,75,1.0,5.0,52,0.00,,,0.00,195.000000,,2013-02-19 00:42:00,
2013-02-18 17:52:00,31.0,15.0,-100.00,ENE,75,1.0,5.0,52,0.00,,,0.00,195.000000,,2013-02-19 00:52:00,
2013-02-18 18:23:00,29.0,13.0,-100.00,NNW,329,1.0,4.0,50,0.00,,,0.00,45.000000,,2013-02-19 01:23:00,
2013-02-18 18:33:00,29.0,13.0,-100.00,NNW,329,1.0,4.0,50,0.00,,,0.00,45.000000,,2013-02-19 01:33:00,
2013-02-18 18:42:00,29.0,13.0,-100.00,NNW,329,1.0,4.0,50,0.00,,,0.00,45.000000,,2013-02-19 01:42:00,
2013-02-18 18:52:00,29.0,13.0,-100.00,NNW,329,1.0,4.0,50,0.00,,,0.00,45.000000,,2013-02-19 01:52:00,
2013-02-18 19:22:00,26.0,11.0,-100.00,East,85,0.0,3.0,53,0.00,,,0.00,4.000000,,2013-02-19 02:22:00,
2013-02-18 19:33:00,26.0,11.0,-100.00,East,85,0.0,3.0,53,0.00,,,0.00,4.000000,,2013-02-19 02:33:00,
2013-02-18 19:42:00,26.0,11.0,-100.00,East,85,0.0,3.0,53,0.00,,,0.00,4.000000,,2013-02-19 02:42:00,
2013-02-18 19:52:00,26.0,11.0,-100.00,East,85,0.0,3.0,53,0.00,,,0.00,4.000000,,2013-02-19 02:52:00,
2013-02-18 20:23:00,25.0,12.0,-100.00,ESE,102,1.0,2.0,58,0.00,,,0.00,0.000000,,2013-02-19 03:23:00,
2013-02-18 20:33:00,25.0,12.0,-100.00,ESE,102,1.0,2.0,58,0.00,,,0.00,0.000000,,2013-02-19 03:33:00,
2013-02-18 20:52:00,25.0,12.0,-100.00,ESE,102,1.0,2.0,58,0.00,,,0.00,0.000000,,2013-02-19 03:52:00,
2013-02-18 21:22:00,24.0,11.0,-100.00,East,90,2.0,3.0,57,0.00,,,0.00,0.000000,,2013-02-19 04:22:00,
2013-02-18 21:32:00,24.0,11.0,-100.00,East,90,2.0,3.0,57,0.00,,,0.00,0.000000,,2013-02-19 04:32:00,
2013-02-18 21:42:00,24.0,11.0,-100.00,East,90,2.0,3.0,57,0.00,,,0.00,0.000000,,2013-02-19 04:42:00,
2013-02-18 21:52:00,24.0,11.0,-100.00,East,90,2.0,3.0,57,0.00,,,0.00,0.000000,,2013-02-19 04:52:00,
2013-02-18 22:22:00,25.0,11.0,-100.00,East,93,3.0,4.0,54,0.00,,,0.00,0.000000,,2013-02-19 05:22:00,
2013-02-18 22:32:00,25.0,11.0,-100.00,East,93,3.0,4.0,54,0.00,,,0.00,0.000000,,2013-02-19 05:32:00,
2013-02-18 22:43:00,25.0,11.0,-100.00,East,93,3.0,4.0,54,0.00,,,0.00,0.000000,,2013-02-19 05:43:00,
2013-02-18 22:52:00,25.0,11.0,-100.00,East,93,3.0,4.0,54,0.00,,,0.00,0.000000,,2013-02-19 05:52:00,
2013-02-18 23:21:00,25.0,11.0,-100.00,East,96,3.0,5.0,55,0.00,,,0.00,0.000000,,2013-02-19 06:21:00,
2013-02-18 23:32:00,25.0,11.0,-100.00,East,96,3.0,5.0,55,0.00,,,0.00,0.000000,,2013-02-19 06:32:00,
2013-02-18 23:42:00,25.0,11.0,-100.00,East,96,3.0,5.0,55,0.00,,,0.00,0.000000,,2013-02-19 06:42:00,
2013-02-18 23:52:00,25.0,11.0,-100.00,East,96,3.0,5.0,55,0.00,,,0.00,0.000000,,2013-02-19 06:52:00,